#timestamp,LO_Frequency,Hit,StdDev 
1702335615.6,286047000.8,N
1702335635.5,286047001.1,N
1702335655.3,286046998.1,N
1702335675.1,286047001.0,N
1702335695.9,286047002.8,N
1702335715.7,286047001.0,N
1702335735.5,286047001.0,N
1702335755.4,286046998.4,N
1702335775.2,286046998.7,N
1702335795.1,286046999.3,N
1702335796.0,286046999.3,N
1702335815.8,286046999.6,N
1702335835.6,286046996.5,N
1702335855.5,286046996.7,N
1702335875.3,286046997.6,N
1702335895.1,286046997.2,N
1702335915.9,286046999.2,N
1702335935.7,286046999.3,N
1702335955.6,286046998.7,N
1702335975.4,286046998.3,N
1702335995.2,286047000.8,N
1702336015.1,286047000.8,N
1702336016.0,286047000.8,N
1702336035.8,286046999.7,N
1702336055.6,286047000.9,N
1702336075.5,286047000.7,N
1702336095.3,286046998.3,N
1702336115.2,286046997.8,N
1702336135.9,286046997.4,N
1702336155.7,286046996.5,N
1702336175.6,286046999.0,N
1702336195.4,286047000.8,N
1702336215.3,286046999.4,N
1702336235.1,286046997.1,N
1702336255.8,286046999.1,N
1702336275.7,286046996.8,N
1702336295.5,286046999.5,N
1702336315.4,286046999.3,N
1702336335.2,286046998.3,N
1702336355.0,286046998.4,N
1702336355.9,286046998.4,N
1702336375.8,286046998.8,N
1702336395.6,286046998.6,N
1702336415.4,286047001.2,N
1702336435.3,286047000.6,N
1702336455.1,286046998.5,N
1702336475.9,286046998.3,N
1702336495.7,286047000.6,N
1702336515.5,286046998.2,N
1702336535.4,286046998.2,N
1702336555.2,286047001.2,N
1702336575.0,286046998.3,N
1702336576.0,286046998.3,N
1702336595.8,286047001.1,N
1702336615.6,286047000.2,N
1702336635.5,286047000.8,N
1702336655.3,286047001.0,N
1702336675.2,286047001.2,N
1702336695.9,286047000.5,N
1702336715.7,286046998.9,N
1702336735.6,286046998.5,N
1702336755.4,286046999.0,N
1702336775.3,286046999.0,N
1702336795.1,286046999.4,N
1702336796.0,286046999.4,N
1702336815.8,286046998.7,N
1702336835.7,286046998.6,N
1702336855.5,286046998.8,N
1702336875.3,286046999.4,N
1702336895.2,286046998.6,N
1702336915.0,286046998.5,N
1702336915.9,286046998.5,N
1702336935.8,286046998.5,N
1702336955.6,286046998.1,N
1702336975.4,286046998.4,N
1702336995.3,286047000.7,N
1702337015.1,286047000.7,N
1702337035.8,286046999.8,N
1702337055.7,286047000.2,N
1702337075.5,286047000.2,N
1702337095.4,286047000.2,N
1702337115.2,286047000.4,N
1702337135.0,286047000.0,N
1702337135.9,286047000.0,N
1702337155.8,286047000.4,N
1702337175.6,286047001.2,N
1702337195.4,286047000.8,N
1702337215.3,286047001.1,N
1702337235.1,286046998.7,N
1702337255.9,286046996.5,Y
1702337275.7,286047001.1,P
1702337295.5,286047001.2,N
1702337315.4,286046998.8,N
1702337335.2,286046998.2,N
1702337355.0,286047000.8,N
1702337356.0,286047000.8,N
1702337375.8,286047001.1,N
1702337395.6,286047001.2,N
1702337415.5,286047001.2,N
1702337435.3,286046998.4,N
1702337455.1,286046998.7,N
1702337475.9,286046999.6,N
1702337495.7,286047000.8,N
1702337515.6,286047002.5,N
1702337535.4,286047002.7,N
1702337555.2,286047002.1,N
1702337575.1,286047002.6,N
1702337576.0,286047002.6,N
1702337595.8,286047002.5,N
1702337615.6,286047002.7,N
1702337635.5,286047002.4,N
1702337655.3,286046999.8,N
1702337675.1,286047000.8,N
1702337695.9,286047000.3,N
1702337715.7,286047000.4,N
1702337735.6,286047000.8,N
1702337755.4,286047001.0,N
1702337775.2,286047000.9,N
1702337795.1,286046998.3,N
1702337796.0,286046998.3,N
1702337815.8,286046998.3,N
1702337835.6,286046999.0,N
1702337855.5,286046997.0,N
1702337875.3,286046998.7,N
1702337895.2,286046997.1,N
1702337915.9,286046999.3,N
1702337935.7,286046998.5,N
1702337955.6,286046998.7,N
1702337975.4,286047000.7,N
1702337995.2,286047002.3,N
1702338015.1,286047000.5,N
1702338016.0,286047000.5,N
1702338035.8,286047000.0,N
1702338055.7,286047002.7,N
1702338075.5,286047002.3,N
1702338095.3,286047001.9,N
1702338115.2,286047002.1,N
1702338135.0,286046999.8,N
1702338135.9,286046999.8,N
1702338155.7,286047000.0,N
1702338175.6,286046999.9,N
1702338195.4,286047002.0,N
1702338215.3,286047002.7,N
1702338235.1,286046999.8,N
1702338255.9,286047000.9,N
1702338275.7,286047002.7,N
1702338295.5,286047002.1,N
1702338315.4,286047000.7,N
1702338335.2,286047002.1,N
1702338355.0,286047000.6,N
1702338355.9,286047000.6,N
1702338375.8,286047001.6,N
1702338395.6,286047000.1,N
1702338415.5,286046999.7,N
1702338435.3,286047000.1,N
1702338455.2,286047000.2,N
1702338475.9,286046998.1,N
1702338495.7,286047001.2,N
1702338515.6,286046999.9,N
1702338535.8,286047000.1,N
1702338555.6,286047004.4,Y
1702338575.4,286047004.3,P
1702338595.3,286047002.5,N
1702338615.1,286047002.8,N
1702338635.8,286047000.1,N
1702338655.7,286047000.6,N
1702338675.5,286047000.4,N
1702338695.4,286046998.7,N
1702338715.2,286046996.5,N
1702338735.0,286046999.4,N
1702338735.9,286046999.4,N
1702338755.8,286046999.0,N
1702338775.6,286047000.7,N
1702338795.4,286047001.2,N
1702338815.3,286046998.6,N
1702338835.1,286047001.1,N
1702338855.9,286047000.7,N
1702338875.7,286047000.8,N
1702338895.5,286047001.2,N
1702338915.4,286047001.0,N
1702338935.2,286046998.4,N
1702338955.0,286046998.5,N
1702338955.9,286046998.5,N
1702338975.8,286047000.4,N
1702338995.6,286047002.1,N
1702339015.5,286047004.0,N
1702339035.3,286047005.9,Y
1702339055.1,286047005.9,P
1702339075.9,286047001.8,N
1702339095.7,286047003.7,N
1702339115.6,286047001.7,N
1702339135.4,286047002.1,N
1702339155.2,286047002.6,N
1702339175.1,286047000.0,N
1702339176.0,286047000.0,N
1702339195.8,286047000.2,N
